Location: Newark
(44.3100°N, 0.7769°W)
Time: 15:56:17
(UTC+00:00)

Envisat - Pass Details

Date: 25 November 2019
Orbit: 764 x 766 km, 98.1° (Epoch: 12 December)

Event Time Altitude Azimuth Distance (km) Brightness Sun altitude
Rises 05:37:22 0° 30° (NNE) 3,240 6.5 -16.5°
Reaches altitude 10° 05:40:37 10° 52° (NE) 2,308 6.0 -15.9°
Maximum altitude 05:43:40 16° 89° (E) 1,923 6.2 -15.4°
Drops below altitude 10° 05:46:43 10° 127° (SE) 2,297 6.6 -14.8°
Sets 05:49:55 0° 149° (SSE) 3,217 7.0 -14.3°
